| time (UTC) | temp F | wind direction | speed MPH | gust MPH | rain 1hr in | rain 24hr in | rain mn in | humidity % | barometer mb |
| 20260509194004 | 94 | 219 | 6.0 | 15.0 | 0.00 | 0.00 | 0.00 | 49 | 1011.5 |
| 20260509193025 | 95 | 230 | 4.0 | 12.0 | 0.00 | 0.00 | 0.00 | 49 | 1011.7 |
| 20260509192003 | 94 | 220 | 5.0 | 11.0 | 0.00 | 0.00 | 0.00 | 50 | 1011.7 |
| 20260509191003 | 95 | 242 | 6.0 | 12.0 | 0.00 | 0.00 | 0.00 | 48 | 1011.9 |
| 20260509190004 | 96 | 229 | 4.0 | 16.0 | 0.00 | 0.00 | 0.00 | 49 | 1011.9 |
| 20260509185003 | 95 | 212 | 5.0 | 13.0 | 0.00 | 0.00 | 0.00 | 49 | 1012.1 |
| 20260509184024 | 95 | 217 | 3.0 | 12.0 | 0.00 | 0.00 | 0.00 | 50 | 1012.1 |
| 20260509183004 | 95 | 210 | 3.0 | 8.0 | 0.00 | 0.00 | 0.00 | 47 | 1012.4 |
| 20260509182004 | 94 | 225 | 4.0 | 11.0 | 0.00 | 0.00 | 0.00 | 50 | 1012.4 |
| 20260509181003 | 93 | 204 | 4.0 | 13.0 | 0.00 | 0.00 | 0.00 | 51 | 1012.4 |
| 20260509180025 | 93 | 215 | 4.0 | 13.0 | 0.00 | 0.00 | 0.00 | 49 | 1012.5 |
| 20260509175004 | 93 | 221 | 5.0 | 15.0 | 0.00 | 0.00 | 0.00 | 51 | 1012.6 |
| 20260509174004 | 94 | 219 | 5.0 | 14.0 | 0.00 | 0.00 | 0.00 | 49 | 1012.7 |
| 20260509173003 | 93 | 223 | 5.0 | 13.0 | 0.00 | 0.00 | 0.00 | 51 | 1012.8 |
| 20260509172003 | 93 | 232 | 6.0 | 17.0 | 0.00 | 0.00 | 0.00 | 49 | 1012.8 |
| 20260509171004 | 93 | 230 | 6.0 | 13.0 | 0.00 | 0.00 | 0.00 | 51 | 1012.9 |
| 20260509170004 | 92 | 217 | 6.0 | 16.0 | 0.00 | 0.00 | 0.00 | 51 | 1013.0 |
| 20260509165025 | 92 | 223 | 3.0 | 12.0 | 0.00 | 0.00 | 0.00 | 53 | 1013.2 |
| 20260509164025 | 93 | 215 | 3.0 | 8.0 | 0.00 | 0.00 | 0.00 | 53 | 1013.4 |
| 20260509163004 | 93 | 209 | 3.0 | 9.0 | 0.00 | 0.00 | 0.00 | 52 | 1013.5 |
| 20260509162025 | 93 | 199 | 3.0 | 11.0 | 0.00 | 0.00 | 0.00 | 54 | 1013.4 |
| 20260509161003 | 92 | 206 | 2.0 | 8.0 | 0.00 | 0.00 | 0.00 | 57 | 1013.6 |
| 20260509160003 | 91 | 210 | 5.0 | 15.0 | 0.00 | 0.00 | 0.00 | 57 | 1013.8 |
| 20260509155003 | 91 | 201 | 3.0 | 9.0 | 0.00 | 0.00 | 0.00 | 57 | 1013.9 |
| 20260509154003 | 91 | 198 | 3.0 | 10.0 | 0.00 | 0.00 | 0.00 | 57 | 1014.1 |
| 20260509153024 | 91 | 205 | 2.0 | 8.0 | 0.00 | 0.00 | 0.00 | 58 | 1014.2 |
| 20260509152003 | 91 | 161 | 0.0 | 6.0 | 0.00 | 0.00 | 0.00 | 59 | 1014.4 |
| 20260509151024 | 91 | 0 | 0.0 | 0.0 | 0.00 | 0.00 | 0.00 | 61 | 1014.4 |
| 20260509150004 | 90 | 149 | 0.0 | 4.0 | 0.00 | 0.00 | 0.00 | 62 | 1014.3 |
| 20260509145004 | 89 | 121 | 0.0 | 5.0 | 0.00 | 0.00 | 0.00 | 64 | 1014.3 |
| 20260509144003 | 89 | 0 | 0.0 | 0.0 | 0.00 | 0.00 | 0.00 | 65 | 1014.2 |
| 20260509143005 | 88 | 0 | 0.0 | 0.0 | 0.00 | 0.00 | 0.00 | 68 | 1014.3 |
| 20260509142024 | 87 | 0 | 0.0 | 0.0 | 0.00 | 0.00 | 0.00 | 69 | 1014.3 |
| 20260509141004 | 87 | 0 | 0.0 | 0.0 | 0.00 | 0.00 | 0.00 | 69 | 1014.4 |
| 20260509140005 | 86 | 0 | 0.0 | 0.0 | 0.00 | 0.00 | 0.00 | 69 | 1014.3 |
| 20260509135024 | 85 | 0 | 0.0 | 0.0 | 0.00 | 0.00 | 0.00 | 71 | 1014.2 |
| 20260509134003 | 84 | 0 | 0.0 | 0.0 | 0.00 | 0.00 | 0.00 | 72 | 1014.3 |
| 20260509133004 | 83 | 0 | 0.0 | 0.0 | 0.00 | 0.00 | 0.00 | 75 | 1014.2 |
| 20260509132004 | 83 | 0 | 0.0 | 0.0 | 0.00 | 0.00 | 0.00 | 74 | 1014.3 |
| 20260509131004 | 82 | 0 | 0.0 | 0.0 | 0.00 | 0.00 | 0.00 | 77 | 1014.4 |
| 20260509130004 | 80 | 46 | 1.0 | 4.0 | 0.00 | 0.00 | 0.00 | 81 | 1014.4 |
| 20260509125004 | 79 | 51 | 3.0 | 5.0 | 0.00 | 0.00 | 0.00 | 82 | 1014.2 |
| 20260509124003 | 78 | 48 | 3.0 | 6.0 | 0.00 | 0.00 | 0.00 | 83 | 1014.0 |
| 20260509123024 | 78 | 51 | 3.0 | 4.0 | 0.00 | 0.00 | 0.00 | 84 | 1013.8 |
| 20260509122024 | 77 | 47 | 5.0 | 8.0 | 0.00 | 0.00 | 0.00 | 86 | 1013.8 |
| 20260509121003 | 77 | 48 | 4.0 | 8.0 | 0.00 | 0.00 | 0.00 | 87 | 1013.6 |
| 20260509120004 | 76 | 41 | 3.0 | 5.0 | 0.00 | 0.00 | 0.00 | 87 | 1013.6 |
| 20260509115003 | 76 | 28 | 3.0 | 5.0 | 0.00 | 0.00 | 0.00 | 88 | 1013.5 |
| 20260509114025 | 75 | 48 | 1.0 | 5.0 | 0.00 | 0.00 | 0.00 | 90 | 1013.6 |
| 20260509113004 | 73 | 0 | 0.0 | 0.0 | 0.00 | 0.00 | 0.00 | 92 | 1013.5 |
| 20260509112003 | 72 | 0 | 0.0 | 0.0 | 0.00 | 0.00 | 0.00 | 91 | 1013.5 |
| 20260509111003 | 72 | 0 | 0.0 | 0.0 | 0.00 | 0.00 | 0.00 | 91 | 1013.3 |
| 20260509110003 | 71 | 0 | 0.0 | 0.0 | 0.00 | 0.00 | 0.00 | 90 | 1013.2 |
| 20260509105024 | 71 | 0 | 0.0 | 0.0 | 0.00 | 0.00 | 0.00 | 90 | 1013.4 |
| 20260509104024 | 71 | 0 | 0.0 | 0.0 | 0.00 | 0.00 | 0.00 | 90 | 1013.2 |
| 20260509103003 | 71 | 0 | 0.0 | 0.0 | 0.00 | 0.00 | 0.00 | 89 | 1013.2 |
| 20260509102004 | 72 | 0 | 0.0 | 0.0 | 0.00 | 0.00 | 0.00 | 89 | 1013.2 |
| 20260509101003 | 72 | 0 | 0.0 | 0.0 | 0.00 | 0.00 | 0.00 | 89 | 1013.0 |
| 20260509100024 | 72 | 0 | 0.0 | 0.0 | 0.00 | 0.00 | 0.00 | 89 | 1013.0 |
| 20260509095004 | 72 | 0 | 0.0 | 0.0 | 0.00 | 0.00 | 0.00 | 89 | 1012.9 |
| 20260509094004 | 72 | 0 | 0.0 | 0.0 | 0.00 | 0.00 | 0.00 | 88 | 1012.9 |
| 20260509093004 | 72 | 0 | 0.0 | 0.0 | 0.00 | 0.00 | 0.00 | 88 | 1013.0 |
| 20260509092004 | 73 | 0 | 0.0 | 0.0 | 0.00 | 0.00 | 0.00 | 88 | 1012.9 |
| 20260509091005 | 73 | 0 | 0.0 | 0.0 | 0.00 | 0.00 | 0.00 | 87 | 1012.9 |
| 20260509090026 | 73 | 0 | 0.0 | 0.0 | 0.00 | 0.00 | 0.00 | 87 | 1013.0 |
| 20260509085005 | 74 | 0 | 0.0 | 0.0 | 0.00 | 0.00 | 0.00 | 86 | 1013.0 |
| 20260509084004 | 73 | 0 | 0.0 | 0.0 | 0.00 | 0.00 | 0.00 | 86 | 1013.0 |
| 20260509083004 | 74 | 0 | 0.0 | 0.0 | 0.00 | 0.00 | 0.00 | 85 | 1013.2 |
| 20260509082004 | 74 | 0 | 0.0 | 0.0 | 0.00 | 0.00 | 0.00 | 85 | 1013.2 |
| 20260509081027 | 74 | 0 | 0.0 | 0.0 | 0.00 | 0.00 | 0.00 | 85 | 1013.4 |
| 20260509080005 | 74 | 0 | 0.0 | 0.0 | 0.00 | 0.00 | 0.00 | 84 | 1013.5 |
| 20260509075025 | 75 | 290 | 0.0 | 4.0 | 0.00 | 0.00 | 0.00 | 83 | 1013.4 |
| 20260509074005 | 75 | 291 | 1.0 | 3.0 | 0.00 | 0.00 | 0.00 | 83 | 1013.5 |
| 20260509073005 | 75 | 293 | 1.0 | 5.0 | 0.00 | 0.00 | 0.00 | 83 | 1013.4 |
| 20260509072005 | 75 | 283 | 1.0 | 4.0 | 0.00 | 0.00 | 0.00 | 82 | 1013.4 |
| 20260509071005 | 75 | 283 | 1.0 | 4.0 | 0.00 | 0.00 | 0.00 | 82 | 1013.5 |
| 20260509070006 | 75 | 286 | 2.0 | 6.0 | 0.00 | 0.00 | 0.00 | 82 | 1013.6 |
| 20260509065004 | 76 | 283 | 2.0 | 7.0 | 0.00 | 0.00 | 0.00 | 81 | 1013.5 |
| 20260509064005 | 76 | 285 | 2.0 | 5.0 | 0.00 | 0.00 | 0.00 | 80 | 1013.6 |
| 20260509063026 | 76 | 285 | 3.0 | 6.0 | 0.00 | 0.00 | 0.00 | 80 | 1013.7 |
| 20260509062004 | 76 | 285 | 2.0 | 4.0 | 0.00 | 0.00 | 0.00 | 79 | 1013.8 |
| 20260509061004 | 77 | 291 | 1.0 | 5.0 | 0.00 | 0.00 | 0.00 | 78 | 1013.8 |
| 20260509060005 | 77 | 0 | 0.0 | 0.0 | 0.00 | 0.00 | 0.00 | 76 | 1014.0 |
| 20260509055005 | 77 | 309 | 0.0 | 4.0 | 0.00 | 0.00 | 0.00 | 75 | 1014.1 |
| 20260509054005 | 78 | 280 | 2.0 | 5.0 | 0.00 | 0.00 | 0.00 | 74 | 1014.1 |
| 20260509053005 | 78 | 281 | 3.0 | 7.0 | 0.00 | 0.00 | 0.00 | 74 | 1014.1 |
| 20260509052005 | 78 | 288 | 3.0 | 7.0 | 0.00 | 0.00 | 0.00 | 73 | 1014.4 |
| 20260509051005 | 78 | 285 | 2.0 | 4.0 | 0.00 | 0.00 | 0.00 | 72 | 1014.4 |
| 20260509050026 | 79 | 286 | 1.0 | 3.0 | 0.00 | 0.00 | 0.00 | 71 | 1014.4 |
| 20260509045005 | 79 | 301 | 0.0 | 6.0 | 0.00 | 0.00 | 0.00 | 71 | 1014.5 |
| 20260509044004 | 80 | 334 | 1.0 | 5.0 | 0.00 | 0.00 | 0.00 | 72 | 1014.4 |
| 20260509043005 | 80 | 353 | 0.0 | 3.0 | 0.00 | 0.00 | 0.00 | 72 | 1014.4 |
| 20260509042025 | 80 | 280 | 0.0 | 4.0 | 0.00 | 0.00 | 0.00 | 71 | 1014.3 |
| 20260509041004 | 80 | 289 | 1.0 | 6.0 | 0.00 | 0.00 | 0.00 | 70 | 1014.2 |
| 20260509040005 | 80 | 294 | 1.0 | 5.0 | 0.00 | 0.00 | 0.00 | 69 | 1014.4 |
| 20260509035005 | 81 | 307 | 0.0 | 1.0 | 0.00 | 0.00 | 0.00 | 69 | 1014.4 |
| 20260509034005 | 81 | 0 | 0.0 | 0.0 | 0.00 | 0.00 | 0.00 | 68 | 1014.6 |
| 20260509033005 | 82 | 0 | 0.0 | 0.0 | 0.00 | 0.00 | 0.00 | 68 | 1014.7 |
| 20260509032005 | 82 | 309 | 0.0 | 4.0 | 0.00 | 0.00 | 0.00 | 66 | 1014.6 |
| 20260509031005 | 83 | 312 | 1.0 | 4.0 | 0.00 | 0.00 | 0.00 | 66 | 1014.6 |
| 20260509030004 | 84 | 338 | 2.0 | 7.0 | 0.00 | 0.00 | 0.00 | 65 | 1014.6 |
| 20260509025005 | 84 | 300 | 0.0 | 1.0 | 0.00 | 0.00 | 0.00 | 66 | 1014.6 |
| 20260509024005 | 84 | 283 | 0.0 | 2.0 | 0.00 | 0.00 | 0.00 | 65 | 1014.6 |
| 20260509023005 | 84 | 0 | 0.0 | 0.0 | 0.00 | 0.00 | 0.00 | 64 | 1014.5 |
| 20260509022005 | 84 | 0 | 0.0 | 0.0 | 0.00 | 0.00 | 0.00 | 64 | 1014.4 |
| 20260509021005 | 85 | 282 | 0.0 | 2.0 | 0.00 | 0.00 | 0.00 | 63 | 1014.3 |
| 20260509020005 | 85 | 282 | 1.0 | 4.0 | 0.00 | 0.00 | 0.00 | 63 | 1014.2 |
| 20260509015005 | 85 | 282 | 0.0 | 3.0 | 0.00 | 0.00 | 0.00 | 63 | 1014.1 |
| 20260509014004 | 85 | 286 | 1.0 | 5.0 | 0.00 | 0.00 | 0.00 | 61 | 1013.7 |
| 20260509013005 | 86 | 289 | 1.0 | 7.0 | 0.00 | 0.00 | 0.00 | 61 | 1013.7 |
| 20260509012004 | 86 | 290 | 2.0 | 8.0 | 0.00 | 0.00 | 0.00 | 60 | 1013.5 |
| 20260509011005 | 87 | 206 | 2.0 | 7.0 | 0.00 | 0.00 | 0.00 | 60 | 1013.5 |
| 20260509010026 | 86 | 162 | 0.0 | 3.0 | 0.00 | 0.00 | 0.00 | 60 | 1013.1 |
| 20260509005005 | 86 | 161 | 0.0 | 3.0 | 0.00 | 0.00 | 0.00 | 60 | 1012.9 |
| 20260509004004 | 86 | 160 | 0.0 | 2.0 | 0.00 | 0.00 | 0.00 | 60 | 1012.7 |
| 20260509003004 | 86 | 0 | 0.0 | 0.0 | 0.00 | 0.00 | 0.00 | 61 | 1012.3 |
| 20260509002004 | 87 | 0 | 0.0 | 0.0 | 0.00 | 0.00 | 0.00 | 59 | 1012.1 |
| 20260509001005 | 87 | 0 | 0.0 | 0.0 | 0.00 | 0.00 | 0.00 | 59 | 1012.1 |
| 20260509000004 | 89 | 0 | 0.0 | 0.0 | 0.00 | 0.00 | 0.00 | 58 | 1012.0 |
| 20260508235004 | 90 | 0 | 0.0 | 0.0 | 0.00 | 0.00 | 0.00 | 57 | 1011.8 |
| 20260508234004 | 91 | 148 | 0.0 | 1.0 | 0.00 | 0.00 | 0.00 | 56 | 1011.7 |
| 20260508233005 | 92 | 0 | 0.0 | 0.0 | 0.00 | 0.00 | 0.00 | 56 | 1011.5 |
| 20260508232005 | 92 | 0 | 0.0 | 0.0 | 0.00 | 0.00 | 0.00 | 53 | 1011.5 |
| 20260508231004 | 93 | 0 | 0.0 | 0.0 | 0.00 | 0.00 | 0.00 | 55 | 1011.4 |
| 20260508230005 | 93 | 0 | 0.0 | 0.0 | 0.00 | 0.00 | 0.00 | 51 | 1011.3 |
| 20260508225006 | 93 | 0 | 0.0 | 0.0 | 0.00 | 0.00 | 0.00 | 49 | 1011.3 |
| 20260508224004 | 93 | 0 | 0.0 | 0.0 | 0.00 | 0.00 | 0.00 | 51 | 1011.2 |
| 20260508223004 | 93 | 0 | 0.0 | 0.0 | 0.00 | 0.00 | 0.00 | 52 | 1011.2 |
| 20260508222004 | 93 | 0 | 0.0 | 0.0 | 0.00 | 0.00 | 0.00 | 53 | 1011.2 |
| 20260508221005 | 93 | 0 | 0.0 | 0.0 | 0.00 | 0.00 | 0.00 | 53 | 1011.2 |
| 20260508220004 | 93 | 0 | 0.0 | 0.0 | 0.00 | 0.00 | 0.00 | 55 | 1011.2 |
| 20260508215004 | 92 | 0 | 0.0 | 0.0 | 0.00 | 0.00 | 0.00 | 55 | 1011.2 |
| 20260508214005 | 92 | 110 | 0.0 | 1.0 | 0.00 | 0.00 | 0.00 | 55 | 1011.2 |
| 20260508213004 | 92 | 0 | 0.0 | 0.0 | 0.00 | 0.00 | 0.00 | 54 | 1011.4 |
| 20260508212005 | 92 | 0 | 0.0 | 0.0 | 0.00 | 0.00 | 0.00 | 51 | 1011.3 |
| 20260508211004 | 93 | 0 | 0.0 | 0.0 | 0.00 | 0.00 | 0.00 | 55 | 1011.5 |
| 20260508210025 | 93 | 113 | 0.0 | 1.0 | 0.00 | 0.00 | 0.00 | 53 | 1011.6 |
| 20260508205005 | 93 | 0 | 0.0 | 0.0 | 0.00 | 0.00 | 0.00 | 50 | 1011.6 |
| 20260508204004 | 94 | 0 | 0.0 | 0.0 | 0.00 | 0.00 | 0.00 | 52 | 1011.8 |
| 20260508203025 | 93 | 80 | 1.0 | 4.0 | 0.00 | 0.00 | 0.00 | 51 | 1011.7 |
| 20260508202004 | 93 | 90 | 0.0 | 3.0 | 0.00 | 0.00 | 0.00 | 54 | 1011.9 |
| 20260508201004 | 93 | 0 | 0.0 | 0.0 | 0.00 | 0.00 | 0.00 | 53 | 1012.2 |
| 20260508200005 | 93 | 0 | 0.0 | 0.0 | 0.00 | 0.00 | 0.00 | 55 | 1012.4 |
| 20260508195004 | 92 | 0 | 0.0 | 0.0 | 0.00 | 0.00 | 0.00 | 60 | 1012.5 |